This demonstration page uses our WeatherBlox Daily Observations layout. Learn more.

Left ArrowRight Arrow

39.08367, -84.50855

Hourly Observations for April 17, 2017

Temp ( °F °C ) Dew Point ( °F °C ) Humidity (%) Winds ( mph kmh ) Pressure ( in mb ) Visibility ( mi km ) Precip ( " mm )
12:53 am 00:53 Cloudy 61 16.1 61 16.1 100 100 SSW 5 7 30.06 1018 7 11.26538 0 0
1:53 am 01:53 Partly Cloudy 62 16.7 62 16.7 100 100 SSW 3 6 30.05 1018 10 16.0934 0 0
2:38 am 02:38 Cloudy 63 17 63 17 100 100 SW 5 7 30.03 1017 10 16.0934 0 0
2:53 am 02:53 Cloudy 62 16.7 62 16.7 100 100 Calm 30.04 1017 10 16.0934 0 0
3:19 am 03:19 Cloudy 63 17.2 62 16.7 97 97 W 3 6 30.03 1017 10 16.0934 0 0
3:36 am 03:36 Cloudy 63 17.2 62 16.7 97 97 W 6 9 30.03 1017 10 16.0934 0 0
3:49 am 03:49 Cloudy 63 17 63 17 100 100 W 3 6 30.03 1017 10 16.0934 0 0
3:53 am 03:53 Cloudy 63 17.2 62 16.7 97 97 W 5 7 30.05 1018 10 16.0934 0 0
4:25 am 04:25 Mostly Cloudy 62 16.7 62 16.7 100 100 Calm 30.03 1017 10 16.0934 0 0
4:53 am 04:53 Cloudy with Mist and Fog 61 16.1 61 16.1 100 100 Calm 30.06 1018 6 9.65604 0 0
5:53 am 05:53 Cloudy 63 17.2 61 16.1 93 93 NNW 5 7 30.08 1019 10 16.0934 0 0
6:53 am 06:53 Mostly Cloudy 60 15.6 59 15 96 96 N 7 11 30.11 1020 10 16.0934 0 0
7:53 am 07:53 Mostly Sunny 59 15 56 13.3 90 90 NNE 6 9 30.12 1020 10 16.0934 0 0
8:53 am 08:53 Sunny 61 16.1 51 10.6 70 70 NE 8 13 30.15 1021 10 16.0934 0 0
9:53 am 09:53 Sunny 64 17.8 48 8.9 56 56 NE 10 17 30.16 1021 10 16.0934 0 0
10:53 am 10:53 Sunny 65 18.3 46 7.8 51 51 ENE 9 15 30.14 1021 10 16.0934 0 0
11:53 am 11:53 Sunny 68 20 44 6.7 42 42 NE 10 17 30.15 1021 10 16.0934 0 0
12:53 pm 12:53 Sunny 70 21.1 45 7.2 41 41 ENE 10 17 30.14 1021 10 16.0934 0 0
1:53 pm 13:53 Sunny 71 21.7 44 6.7 38 38 NNW 12 19 30.14 1021 10 16.0934 0 0
2:53 pm 14:53 Mostly Sunny 69 20.6 44 6.7 41 41 ENE 3 6 30.15 1021 10 16.0934 0 0
3:53 pm 15:53 Sunny 70 21.1 43 6.1 38 38 ENE 3 6 30.14 1021 10 16.0934 0 0
4:53 pm 16:53 Sunny 69 20.6 43 6.1 39 39 N 6 9 30.13 1020 10 16.0934 0 0
5:53 pm 17:53 Sunny 67 19.4 45 7.2 45 45 NE 6 9 30.12 1020 10 16.0934 0 0
6:53 pm 18:53 Sunny 66 18.9 47 8.3 50 50 ENE 5 7 30.13 1020 10 16.0934 0 0
7:53 pm 19:53 Sunny 62 16.7 53 11.7 73 73 Calm 30.14 1021 10 16.0934 0 0
8:53 pm 20:53 Clear 58 14.4 52 11.1 81 81 Calm 30.15 1021 10 16.0934 0 0
9:53 pm 21:53 Clear 56 13.3 53 11.7 90 90 Calm 30.16 1021 10 16.0934 0 0
10:53 pm 22:53 Clear 55 12.8 52 11.1 90 90 Calm 30.17 1022 10 16.0934 0 0
11:53 pm 23:53 Clear 53 11.7 51 10.6 93 93 Calm 30.18 1022 10 16.0934 0 0

Powered by AerisWeather